{"data":{"norad_id":47508,"epoch":"2026-05-25T01:36:57.509856Z","epoch_age_seconds":62995,"freshness":"FRESH","line1":"1 47508U 21006CZ  26145.06733229  .00006665  00000+0  20231-3 0  9996","line2":"2 47508  97.2209 188.8754 0005003 288.4610  71.6089 15.34402635295957","mean_motion":15.34402635,"eccentricity":0.0005003,"inclination_deg":97.2209,"raan_deg":188.8754,"arg_perigee_deg":288.461,"mean_anomaly_deg":71.6089,"bstar":0.00020231,"rev_number":29595,"period_min":93.847596918393,"perigee_km":459.27293998907,"apogee_km":466.11787689695,"semimajor_km":6840.832408443,"source":"CELESTRAK","updated_at":"2026-05-25T13:38:24.926004Z"}}